• In Deutschland
  • Länderverzeichnis
  • Für 7 Tage
  • Wassertemperatur
  • Satellitenkarten
  • Wetterkarte
  • Widgets
  • user-avatar
    Anmelden

    Stündliche Wetter Sabirabad

    Heute, 18 August, Samstag

    Zeit Temperatur Niederschläge Wind Luftdruck Luftfeuchtigkeit
    00:00 +29°C° 0 mm 3 m/S 758 mmHg 47%
    01:00 +29°C° 0 mm 2 m/S 757 mmHg 49%
    02:00 +28°C° 0 mm 2 m/S 757 mmHg 50%
    03:00 +28°C° 0 mm 1 m/S 757 mmHg 52%
    04:00 +28°C° 0 mm 1 m/S 757 mmHg 52%
    05:00 +28°C° 0 mm 1 m/S 758 mmHg 52%
    06:00 +28°C° 0 mm 1 m/S 758 mmHg 52%
    07:00 +30°C° 0 mm 2 m/S 757 mmHg 47%
    08:00 +31°C° 0 mm 2 m/S 757 mmHg 42%
    09:00 +34°C° 0 mm 2 m/S 757 mmHg 35%
    10:00 +35°C° 0 mm 3 m/S 757 mmHg 33%
    11:00 +36°C° 0 mm 3 m/S 757 mmHg 30%
    12:00 +37°C° 0 mm 4 m/S 757 mmHg 28%
    13:00 +38°C° 0 mm 4 m/S 756 mmHg 27%
    14:00 +39°C° 0 mm 5 m/S 756 mmHg 26%
    15:00 +40°C° 0 mm 6 m/S 756 mmHg 26%
    16:00 +39°C° 0 mm 7 m/S 756 mmHg 28%
    17:00 +38°C° 0 mm 7 m/S 756 mmHg 30%
    18:00 +35°C° 0 mm 8 m/S 756 mmHg 33%
    19:00 +34°C° 0 mm 7 m/S 756 mmHg 35%
    20:00 +33°C° 0 mm 7 m/S 757 mmHg 36%
    21:00 +32°C° 0 mm 6 m/S 757 mmHg 38%
    22:00 +32°C° 0 mm 6 m/S 757 mmHg 39%
    23:00 +30°C° 0 mm 5 m/S 757 mmHg 41%

    Morgen, 19 August, Sonntag

    Zeit Temperatur Niederschläge Wind Luftdruck Luftfeuchtigkeit
    00:00 +30°C° 0 mm 5 m/S 757 mmHg 42%
    01:00 +29°C° 0,1 mm 4 m/S 757 mmHg 44%
    02:00 +29°C° 0,1 mm 4 m/S 757 mmHg 45%
    03:00 +28°C° 0,1 mm 3 m/S 757 mmHg 47%
    04:00 +28°C° 0 mm 3 m/S 757 mmHg 48%
    05:00 +28°C° 0 mm 2 m/S 758 mmHg 49%
    06:00 +28°C° 0 mm 2 m/S 758 mmHg 51%
    07:00 +29°C° 0 mm 2 m/S 758 mmHg 45%
    08:00 +31°C° 0 mm 2 m/S 758 mmHg 39%
    09:00 +34°C° 0 mm 3 m/S 758 mmHg 34%
    10:00 +35°C° 0 mm 3 m/S 758 mmHg 31%
    11:00 +36°C° 0 mm 4 m/S 758 mmHg 27%
    12:00 +37°C° 0 mm 4 m/S 758 mmHg 24%
    13:00 +37°C° 0 mm 5 m/S 758 mmHg 23%
    14:00 +39°C° 0 mm 6 m/S 758 mmHg 22%
    15:00 +39°C° 0 mm 7 m/S 758 mmHg 21%
    16:00 +36°C° 0 mm 7 m/S 758 mmHg 24%
    17:00 +35°C° 0 mm 8 m/S 758 mmHg 27%
    18:00 +34°C° 0 mm 9 m/S 758 mmHg 30%
    19:00 +33°C° 0 mm 9 m/S 759 mmHg 35%
    20:00 +31°C° 0 mm 8 m/S 760 mmHg 40%
    21:00 +29°C° 0 mm 8 m/S 760 mmHg 44%
    22:00 +29°C° 0 mm 7 m/S 760 mmHg 46%
    23:00 +28°C° 0 mm 7 m/S 761 mmHg 47%

    übermorgen, 20 August, Montag

    Zeit Temperatur Niederschläge Wind Luftdruck Luftfeuchtigkeit
    00:00 +28°C° 0 mm 7 m/S 761 mmHg 49%
    01:00 +27°C° 0 mm 6 m/S 761 mmHg 49%
    02:00 +27°C° 0 mm 6 m/S 761 mmHg 49%
    03:00 +27°C° 0 mm 5 m/S 761 mmHg 48%
    04:00 +27°C° 0 mm 5 m/S 761 mmHg 48%
    05:00 +26°C° 0 mm 5 m/S 762 mmHg 47%
    06:00 +26°C° 0 mm 5 m/S 762 mmHg 46%
    07:00 +27°C° 0 mm 4 m/S 763 mmHg 43%
    08:00 +29°C° 0 mm 4 m/S 763 mmHg 40%
    09:00 +30°C° 0 mm 4 m/S 763 mmHg 37%
    10:00 +32°C° 0 mm 4 m/S 763 mmHg 34%
    11:00 +33°C° 0 mm 5 m/S 763 mmHg 32%
    12:00 +34°C° 0 mm 5 m/S 763 mmHg 30%
    13:00 +34°C° 0 mm 5 m/S 763 mmHg 29%
    14:00 +34°C° 0 mm 6 m/S 763 mmHg 29%
    15:00 +34°C° 0 mm 6 m/S 763 mmHg 28%
    16:00 +33°C° 0 mm 7 m/S 763 mmHg 31%
    17:00 +32°C° 0 mm 7 m/S 763 mmHg 33%
    18:00 +30°C° 0 mm 7 m/S 763 mmHg 36%
    19:00 +29°C° 0 mm 6 m/S 763 mmHg 40%
    20:00 +28°C° 0 mm 5 m/S 764 mmHg 45%
    21:00 +27°C° 0 mm 4 m/S 764 mmHg 49%
    22:00 +26°C° 0 mm 4 m/S 764 mmHg 52%
    23:00 +26°C° 0 mm 3 m/S 764 mmHg 55%

    21 August, Dienstag

    Zeit Temperatur Niederschläge Wind Luftdruck Luftfeuchtigkeit
    00:00 +25°C° 0 mm 2 m/S 764 mmHg 58%
    01:00 +25°C° 0 mm 2 m/S 763 mmHg 59%
    02:00 +25°C° 0 mm 1 m/S 763 mmHg 61%
    03:00 +24°C° 0 mm 1 m/S 763 mmHg 63%
    04:00 +24°C° 0 mm 1 m/S 763 mmHg 62%
    05:00 +25°C° 0 mm 1 m/S 763 mmHg 61%
    06:00 +25°C° 0 mm 1 m/S 763 mmHg 60%
    07:00 +26°C° 0 mm 1 m/S 763 mmHg 55%
    08:00 +28°C° 0 mm 1 m/S 763 mmHg 49%
    09:00 +29°C° 0 mm 1 m/S 763 mmHg 43%
    10:00 +30°C° 0 mm 2 m/S 763 mmHg 38%
    11:00 +32°C° 0 mm 2 m/S 762 mmHg 33%
    12:00 +34°C° 0 mm 2 m/S 762 mmHg 28%
    13:00 +35°C° 0 mm 3 m/S 761 mmHg 27%
    14:00 +35°C° 0 mm 3 m/S 761 mmHg 25%
    15:00 +36°C° 0 mm 4 m/S 760 mmHg 23%
    16:00 +35°C° 0 mm 4 m/S 761 mmHg 26%
    17:00 +34°C° 0 mm 5 m/S 761 mmHg 28%
    18:00 +33°C° 0 mm 5 m/S 761 mmHg 30%
    19:00 +32°C° 0 mm 5 m/S 761 mmHg 36%
    20:00 +29°C° 0 mm 4 m/S 762 mmHg 41%
    21:00 +28°C° 0 mm 3 m/S 762 mmHg 47%
    22:00 +27°C° 0 mm 2 m/S 762 mmHg 50%
    23:00 +27°C° 0 mm 2 m/S 762 mmHg 53%

    22 August, Mittwoch

    Zeit Temperatur Niederschläge Wind Luftdruck Luftfeuchtigkeit
    00:00 +26°C° 0 mm 1 m/S 762 mmHg 56%
    01:00 +26°C° 0 mm 1 m/S 762 mmHg 57%
    02:00 +25°C° 0 mm 1 m/S 762 mmHg 58%
    03:00 +25°C° 0 mm 1 m/S 761 mmHg 59%
    04:00 +25°C° 0 mm 1 m/S 762 mmHg 57%
    05:00 +26°C° 0 mm 1 m/S 762 mmHg 55%
    06:00 +26°C° 0 mm 1 m/S 762 mmHg 53%
    07:00 +28°C° 0 mm 1 m/S 762 mmHg 46%
    08:00 +30°C° 0 mm 1 m/S 762 mmHg 40%
    09:00 +31°C° 0 mm 1 m/S 762 mmHg 34%
    10:00 +33°C° 0 mm 1 m/S 762 mmHg 31%
    11:00 +35°C° 0 mm 2 m/S 761 mmHg 27%
    12:00 +36°C° 0 mm 2 m/S 761 mmHg 24%
    13:00 +37°C° 0 mm 3 m/S 761 mmHg 23%
    14:00 +37°C° 0 mm 3 m/S 760 mmHg 23%
    15:00 +38°C° 0 mm 4 m/S 760 mmHg 22%
    16:00 +37°C° 0 mm 5 m/S 760 mmHg 25%
    17:00 +36°C° 0 mm 6 m/S 761 mmHg 28%
    18:00 +35°C° 0 mm 6 m/S 761 mmHg 31%
    19:00 +33°C° 0 mm 5 m/S 761 mmHg 35%
    20:00 +32°C° 0 mm 5 m/S 762 mmHg 38%
    21:00 +30°C° 0 mm 4 m/S 762 mmHg 42%
    22:00 +29°C° 0 mm 3 m/S 762 mmHg 44%
    23:00 +28°C° 0 mm 2 m/S 762 mmHg 46%

    23 August, Donnerstag

    Zeit Temperatur Niederschläge Wind Luftdruck Luftfeuchtigkeit
    00:00 +28°C° 0 mm 2 m/S 762 mmHg 49%
    01:00 +27°C° 0 mm 2 m/S 762 mmHg 49%
    02:00 +27°C° 0 mm 1 m/S 762 mmHg 50%
    03:00 +27°C° 0 mm 1 m/S 762 mmHg 50%
    04:00 +27°C° 0 mm 1 m/S 762 mmHg 49%
    05:00 +27°C° 0 mm 1 m/S 762 mmHg 48%
    06:00 +27°C° 0 mm 1 m/S 763 mmHg 47%
    07:00 +29°C° 0 mm 1 m/S 763 mmHg 40%
    08:00 +31°C° 0 mm 1 m/S 763 mmHg 33%
    09:00 +33°C° 0 mm 1 m/S 763 mmHg 26%
    10:00 +35°C° 0 mm 2 m/S 762 mmHg 23%
    11:00 +36°C° 0 mm 3 m/S 762 mmHg 20%
    12:00 +38°C° 0 mm 4 m/S 762 mmHg 18%
    13:00 +39°C° 0 mm 5 m/S 761 mmHg 17%
    14:00 +39°C° 0 mm 6 m/S 761 mmHg 17%
    15:00 +39°C° 0 mm 7 m/S 761 mmHg 17%
    16:00 +38°C° 0 mm 7 m/S 761 mmHg 18%
    17:00 +36°C° 0 mm 7 m/S 762 mmHg 20%
    18:00 +34°C° 0 mm 7 m/S 762 mmHg 22%
    19:00 +33°C° 0 mm 6 m/S 762 mmHg 26%
    20:00 +32°C° 0 mm 5 m/S 763 mmHg 30%
    21:00 +29°C° 0 mm 4 m/S 763 mmHg 34%
    22:00 +29°C° 0 mm 3 m/S 763 mmHg 36%
    23:00 +28°C° 0 mm 3 m/S 763 mmHg 38%
    Mehr zeigen